Theta_e
354 354 355 358 357 356 358 359 358 359 359 359 360 361 361 361 360 358 354 354 355 355 356 355 356 355 355 355 354 355 353 352 353 353 354 353 353 351 349 348 345 343 345 349 353 353 352 352 352 353 353 353 351 349 348 347 347 346 346 345 345 345 344 343 344 344 345 345 344 344 344 344 343 343 344 346 347 349 352 354 354 351 349 349 348
354 357 360 359 359 358 357 357 357 358 359 359 360 361 361 359 358 358 354 354 355 355 356 355 354 353 353 355 356 355 353 350 350 352 352 351 350 349 346 344 344 345 347 348 350 349 348 350 351 351 352 352 351 349 348 347 347 346 346 346 345 345 344 344 344 345 345 345 345 345 345 344 343 343 344 346 348 348 351 353 354 353 352 351 349
357 360 364 360 358 357 355 355 356 359 359 359 361 362 361 359 357 357 355 355 357 356 357 354 353 352 351 354 354 354 353 350 349 350 349 347 347 347 347 347 347 349 349 349 349 349 349 350 351 351 351 351 350 349 349 348 347 346 346 346 345 345 344 344 343 344 344 344 344 345 345 345 344 344 342 344 347 349 351 352 352 353 353 354 353
358 356 361 359 354 354 353 355 358 359 357 357 361 362 360 360 357 357 357 357 356 355 357 357 354 353 352 350 348 349 349 347 345 345 343 344 344 344 347 348 347 345 346 346 347 348 349 349 349 349 349 349 350 350 349 348 346 345 345 344 345 345 345 343 342 342 343 344 345 346 345 345 346 345 342 343 347 351 351 351 352 353 352 353 354
356 353 356 355 352 355 355 356 357 357 357 356 358 359 359 361 358 357 358 358 356 355 356 354 351 350 349 346 343 343 343 341 341 339 337 339 338 338 340 341 341 341 343 342 342 342 343 344 344 344 345 345 346 346 346 345 343 343 343 344 343 344 344 343 342 341 342 344 345 345 345 346 347 343 341 342 344 348 350 350 349 350 350 351 351
357 356 354 352 354 357 357 357 357 356 357 355 356 358 359 360 358 357 357 357 356 354 351 347 346 345 342 341 341 341 341 341 342 338 337 337 337 336 337 337 338 341 342 340 339 340 341 342 342 343 344 343 343 343 343 342 341 342 343 343 342 342 343 344 343 341 343 345 343 344 345 346 346 344 343 343 342 341 344 348 349 348 349 348 348
354 355 352 352 356 358 358 357 356 355 355 355 355 356 358 359 358 356 356 355 353 350 346 345 344 342 340 339 338 337 338 340 340 337 337 338 337 337 337 338 340 340 340 340 341 341 342 343 343 344 344 343 343 343 344 343 343 343 343 343 343 344 344 345 345 343 342 345 344 344 345 346 345 345 345 346 346 343 341 344 347 347 347 346 346
350 351 351 354 356 356 357 357 355 353 353 353 353 355 356 357 357 355 355 353 351 348 346 344 341 340 340 339 338 336 335 336 336 336 339 340 338 338 339 339 339 340 340 340 341 341 341 342 343 343 343 342 343 343 344 345 345 344 343 343 343 344 344 345 346 344 343 345 345 344 345 346 345 344 344 345 347 347 345 344 344 343 344 344 344
349 348 350 353 355 356 357 357 355 351 352 352 353 354 355 356 356 354 353 352 350 347 345 343 341 340 339 338 337 337 336 335 335 336 339 340 338 338 340 340 340 340 340 340 340 340 340 340 341 341 341 342 343 343 343 344 344 343 343 344 344 344 343 342 342 341 342 344 345 343 343 344 345 344 343 344 346 347 345 345 344 344 344 345 344
349 348 350 353 354 355 355 355 353 350 351 352 352 354 355 356 355 353 352 351 348 345 345 345 342 341 340 338 338 339 338 336 336 336 338 340 340 340 341 341 340 339 339 339 339 339 339 340 339 339 340 341 342 342 341 341 341 341 341 342 342 343 343 343 342 341 341 343 343 343 343 344 345 345 344 344 344 344 343 344 344 343 344 345 343
348 347 350 352 352 352 353 353 351 350 351 351 352 354 355 356 354 353 352 350 346 345 345 345 343 342 341 339 338 338 336 335 335 336 338 339 340 340 340 339 339 339 339 339 339 339 340 340 339 339 340 340 340 340 340 339 339 338 338 339 339 341 342 343 344 343 342 341 341 341 343 344 344 345 344 344 343 343 343 342 341 340 341 342 342
348 349 351 353 354 352 353 352 349 351 352 351 353 354 355 355 354 352 350 347 346 346 346 345 344 342 339 338 338 336 334 334 335 336 337 338 338 339 338 337 337 338 339 339 339 339 339 339 339 340 340 339 339 339 339 339 339 338 338 338 338 339 340 341 342 341 340 340 340 340 342 343 343 344 343 343 343 343 343 341 339 339 340 341 342
346 350 351 354 357 354 353 353 351 353 354 352 353 354 355 354 352 351 348 347 346 345 346 345 343 342 339 338 338 336 335 335 335 335 337 338 338 337 337 336 336 336 337 338 339 338 338 338 338 339 339 339 338 338 339 339 339 339 339 338 339 339 339 341 341 341 339 338 339 340 341 341 341 341 342 342 342 341 340 340 339 339 341 340 341
348 351 352 355 358 356 354 355 356 356 355 354 353 353 354 353 351 350 347 346 346 346 345 344 342 342 340 338 337 336 336 336 336 336 337 337 337 336 335 335 335 335 336 337 337 337 337 337 338 338 338 338 338 338 339 340 339 338 338 338 339 339 339 339 340 339 338 337 338 339 339 339 338 339 340 339 337 336 336 337 337 338 339 339 340
350 351 353 357 359 358 357 358 359 358 356 356 353 352 353 351 350 349 347 346 346 345 344 344 343 343 341 338 337 337 336 336 336 336 336 334 335 335 334 335 335 336 337 337 336 336 336 336 336 336 336 336 337 337 338 339 338 338 338 338 338 339 340 339 337 336 336 336 336 337 337 336 337 337 336 336 336 336 335 335 335 336 338 339 339
349 349 353 357 358 359 361 359 358 356 356 355 353 351 352 351 349 348 347 347 346 345 343 343 342 342 340 338 337 338 337 335 336 336 336 335 334 334 335 335 336 336 337 336 335 335 335 335 335 335 335 336 336 337 338 338 338 337 338 337 338 339 339 338 336 334 334 335 335 336 335 334 335 334 333 334 336 337 336 335 334 335 336 338 338
349 352 354 357 358 359 360 358 355 354 355 355 353 352 351 350 349 348 348 348 346 344 342 341 342 341 340 339 338 338 338 337 337 337 336 335 334 334 335 336 336 336 335 335 334 334 334 334 334 334 335 335 336 337 337 338 337 337 337 337 337 338 337 336 334 333 334 334 335 334 334 332 332 331 330 332 334 335 336 336 336 334 335 336 338
354 355 355 356 359 360 360 356 353 353 355 354 352 352 351 350 349 350 350 348 346 345 343 341 342 341 340 341 340 338 337 337 337 336 335 334 334 334 336 336 336 335 335 334 334 334 334 334 334 334 334 334 335 336 336 336 336 336 335 336 336 337 336 336 335 335 335 335 335 333 332 331 330 329 330 331 332 333 333 334 334 334 335 335 336
357 354 353 354 357 358 358 355 353 353 354 354 353 352 352 349 349 351 350 347 346 345 344 343 343 342 342 341 340 339 337 336 336 336 335 335 334 334 335 336 336 335 335 335 335 334 334 334 334 334 334 334 334 335 336 336 336 336 336 336 337 336 336 337 336 336 336 335 334 332 332 330 329 330 331 330 330 331 332 332 333 333 334 334 335
355 353 354 353 352 354 355 354 354 352 351 354 354 352 351 349 349 351 349 347 346 345 345 346 344 343 342 340 339 339 337 337 336 336 335 335 334 335 336 335 336 336 335 335 335 334 334 334 334 334 334 333 333 334 334 335 336 336 337 337 337 336 335 336 337 336 336 334 333 332 331 330 330 331 330 330 330 330 330 331 331 331 332 333 334
355 357 356 350 350 354 353 353 354 352 350 352 353 351 350 349 348 349 348 347 347 346 346 346 344 342 341 339 338 338 337 337 337 336 336 335 335 336 335 335 336 335 335 335 335 335 334 334 334 334 334 334 334 333 333 333 334 335 336 335 336 335 334 335 337 337 336 334 333 331 331 331 331 330 329 329 329 329 329 328 328 328 329 331 332
353 357 352 348 353 353 352 354 355 353 350 350 352 350 346 347 348 348 348 348 346 347 346 344 342 341 341 340 339 339 339 339 338 337 337 336 336 336 335 335 336 335 336 335 335 334 334 334 334 333 334 334 334 334 334 333 333 334 335 334 334 334 334 335 336 336 335 333 332 331 331 331 330 329 328 328 327 327 327 326 326 326 327 328 329
349 349 349 352 354 353 353 356 355 352 350 348 350 348 343 346 348 347 347 347 345 346 345 343 341 340 340 338 338 338 338 338 338 337 337 336 335 335 335 335 335 334 334 334 333 333 332 333 333 333 334 334 334 334 334 333 333 334 335 335 334 334 334 335 336 335 334 332 331 331 330 330 329 328 328 326 325 325 325 326 325 326 326 326 326
355 350 356 359 359 357 355 356 355 352 351 349 348 347 344 346 347 345 345 345 344 346 346 344 343 342 340 338 337 338 338 337 337 337 336 336 334 333 333 332 332 330 330 330 331 332 331 331 332 332 332 333 333 334 333 333 333 332 332 333 334 335 335 335 335 334 333 332 331 331 330 329 329 328 327 325 324 325 325 326 325 325 326 326 326
365 361 362 358 360 362 357 356 356 352 351 351 349 347 346 347 346 344 343 344 343 346 348 348 347 344 341 338 337 337 338 337 337 336 335 334 334 332 330 329 329 329 330 331 332 331 330 330 330 330 331 331 331 332 332 334 334 332 329 327 329 332 334 334 334 335 334 331 331 330 329 329 329 328 327 325 324 325 325 325 325 325 325 325 325
371 369 365 360 361 362 358 357 354 351 351 351 349 347 346 345 345 342 340 342 343 342 343 345 348 346 342 339 338 337 338 337 337 336 335 334 333 332 331 330 330 330 330 331 330 329 329 329 329 329 329 330 330 330 332 334 335 335 332 328 327 330 333 334 333 334 333 332 331 330 330 330 329 329 328 326 324 324 325 325 325 325 325 325 324
366 369 371 369 366 363 360 358 355 352 352 351 349 347 343 342 341 339 338 341 342 340 337 339 344 345 342 341 339 338 338 337 336 336 335 334 334 333 333 332 331 331 331 331 330 330 330 329 329 329 329 329 329 330 332 335 337 337 335 332 331 331 333 334 333 333 333 332 330 330 330 329 329 328 327 324 323 324 324 325 325 325 324 324 324
361 368 374 372 367 363 362 357 355 354 352 351 349 344 341 339 336 335 339 342 340 338 338 339 341 341 341 340 339 338 338 337 336 335 334 334 334 334 335 334 333 334 334 333 332 330 329 329 328 328 329 328 329 331 334 337 337 335 333 332 332 331 332 333 334 333 333 332 331 330 330 329 329 328 325 323 323 323 324 325 325 325 325 324 324
357 365 370 369 367 367 363 356 355 355 352 350 348 343 339 337 333 333 338 342 340 337 339 343 342 340 339 338 337 337 337 336 336 335 334 334 334 335 335 335 335 336 335 334 333 331 330 329 328 329 328 328 330 333 334 334 334 332 331 333 333 331 331 333 333 333 332 331 330 330 330 330 329 327 325 324 324 324 324 325 325 326 325 325 325
356 363 368 369 366 364 361 357 355 355 353 350 346 343 340 336 335 337 337 337 338 338 339 344 343 339 338 335 334 335 335 335 335 334 333 334 334 335 336 335 335 336 336 335 332 331 330 329 329 329 328 329 331 331 331 331 331 330 329 331 332 330 329 330 330 331 330 329 329 329 329 329 329 328 327 326 325 324 325 325 326 327 326 326 325
359 365 366 367 364 358 359 360 357 354 353 351 347 345 343 339 338 340 338 335 337 340 342 343 340 338 338 336 333 334 335 335 334 333 333 334 334 335 335 335 335 336 336 334 332 331 330 329 328 328 328 330 330 330 328 328 329 330 328 328 327 327 326 326 326 327 328 328 329 328 329 329 329 328 328 326 325 325 326 327 328 327 325 325 325
361 363 361 360 361 360 362 362 358 354 352 351 349 348 345 343 340 340 339 336 340 344 344 342 340 338 338 337 335 336 336 335 335 334 334 334 334 334 335 334 335 336 335 333 331 330 328 327 327 328 329 331 330 329 328 326 327 330 330 328 326 326 326 326 325 326 325 326 329 330 330 329 328 327 327 326 326 326 328 329 327 325 324 324 324
356 361 361 360 358 358 362 360 355 353 351 349 349 348 345 344 341 340 340 339 343 345 342 340 340 339 337 336 336 337 336 335 335 334 333 334 334 334 334 334 334 335 334 332 329 328 328 327 327 329 330 330 329 328 328 327 327 328 328 328 327 327 328 329 329 327 324 326 330 332 331 329 328 328 327 327 327 327 329 329 326 323 324 324 323
348 353 357 361 360 355 356 358 356 353 350 346 346 347 345 344 342 340 340 340 342 341 339 339 341 339 337 336 336 336 335 335 334 333 333 333 333 334 333 333 334 333 332 330 328 328 327 326 328 330 330 329 329 328 327 327 327 327 327 327 327 327 328 331 331 329 327 328 330 332 331 329 330 331 329 328 328 329 330 329 325 323 324 323 322
347 350 355 365 368 359 355 357 356 353 349 345 343 344 344 342 339 336 337 339 339 339 340 341 340 338 336 337 337 336 334 334 333 333 333 332 333 334 334 333 334 333 331 329 327 327 327 327 328 329 329 330 329 328 328 329 328 327 326 326 327 327 328 329 329 328 328 328 327 328 329 329 329 330 329 328 329 329 330 329 326 323 323 323 323
349 356 362 366 365 359 355 354 353 351 349 346 344 342 340 337 334 334 337 340 340 339 340 339 338 338 337 336 336 335 334 333 332 332 332 332 333 335 333 333 334 333 331 329 327 327 327 327 327 327 329 331 330 329 329 328 327 327 325 324 325 327 327 328 328 327 326 325 324 326 328 329 328 326 328 330 330 329 330 329 325 323 323 323 323
349 350 354 356 356 356 354 352 351 348 346 346 343 338 336 333 333 335 339 339 338 338 337 335 335 336 336 335 334 334 333 332 332 332 331 331 333 333 332 332 333 332 332 330 328 327 327 327 327 327 329 331 330 329 328 327 327 327 325 323 324 325 327 328 328 327 325 323 323 326 328 328 327 326 328 329 328 329 328 326 323 322 323 323 322
343 341 344 350 355 359 356 353 353 347 342 342 339 335 334 334 334 336 335 334 335 335 333 333 333 334 333 333 332 331 331 332 332 332 330 331 332 331 331 332 332 332 332 331 329 328 327 327 327 326 328 329 328 327 327 327 327 326 324 324 325 327 329 328 327 326 325 322 323 326 327 328 327 328 328 327 327 327 326 323 322 322 323 323 322
340 341 342 346 355 359 355 352 349 342 339 337 333 332 333 335 335 334 332 333 335 333 332 331 331 331 331 331 331 330 331 331 332 330 330 330 329 328 329 330 330 330 330 329 329 328 327 328 327 326 326 326 326 327 327 327 327 326 325 325 327 329 330 328 326 326 325 324 323 325 327 327 327 328 328 329 328 325 323 321 322 323 323 322 321
339 341 339 343 356 357 352 347 343 339 336 334 330 331 333 334 334 330 330 333 333 331 331 331 330 330 330 329 329 330 331 331 331 330 330 329 328 328 330 330 330 330 329 329 329 328 327 328 327 326 325 325 325 326 326 326 326 326 326 326 327 329 329 328 328 327 326 326 325 325 326 326 327 328 328 327 325 322 321 322 322 323 323 322 321
335 341 342 348 357 355 350 346 342 338 335 332 331 332 333 333 331 330 330 332 331 329 330 331 330 329 329 329 330 331 332 331 331 331 330 328 328 330 332 331 330 331 330 330 331 329 326 327 328 326 325 325 325 325 325 326 326 326 327 328 327 327 329 330 330 329 328 328 326 326 326 326 327 327 325 324 323 321 321 322 323 324 324 322 321
343 345 346 351 355 353 350 347 342 337 334 333 334 335 335 332 331 331 329 329 329 330 329 329 329 329 330 332 331 332 333 333 332 331 330 329 329 330 330 328 327 329 330 330 330 328 327 328 329 328 326 325 325 326 326 327 327 327 328 327 325 324 325 326 326 327 329 328 327 327 327 325 324 324 324 323 322 321 322 323 323 325 323 319 319
346 345 345 346 345 347 347 345 342 338 336 335 334 334 332 332 333 332 328 326 328 328 327 328 329 330 332 333 331 332 335 333 332 330 328 328 330 329 328 327 327 328 330 330 331 330 329 329 329 327 326 325 324 325 326 327 327 327 327 326 324 324 324 323 324 326 327 327 327 327 326 323 323 325 325 324 323 322 323 323 324 325 322 317 318
339 340 342 343 344 347 346 344 341 338 335 333 332 330 331 335 336 333 330 330 330 328 328 330 329 331 334 334 333 335 335 332 330 329 327 328 329 328 328 328 328 329 329 331 332 331 329 328 326 325 325 324 324 324 326 328 327 326 325 324 324 324 324 323 323 323 324 325 326 325 323 322 323 325 326 326 325 323 322 322 323 323 321 318 318
332 334 339 341 343 345 344 342 341 338 334 332 332 333 334 336 335 331 330 332 331 330 332 331 330 332 336 336 335 334 332 330 329 329 329 329 328 328 327 327 327 329 331 332 331 328 327 326 326 326 325 323 323 324 327 327 326 323 322 322 322 322 323 323 324 323 323 325 324 323 323 323 324 325 326 326 324 321 320 321 322 322 320 319 319
336 340 340 337 339 342 342 343 341 337 334 333 333 336 337 335 333 331 331 332 333 333 334 334 333 335 336 336 334 332 332 332 331 330 329 328 327 327 327 326 327 329 331 332 330 328 327 328 328 328 326 322 322 325 326 325 323 321 320 320 320 321 322 323 323 324 324 323 322 323 324 324 324 324 325 325 322 319 318 319 320 318 317 319 319
340 342 339 335 339 343 342 342 341 338 336 335 334 335 336 335 334 332 332 335 336 336 336 336 335 336 336 335 333 332 332 332 331 329 328 327 327 327 326 328 330 330 330 330 328 326 328 329 328 327 325 323 324 325 324 322 320 320 320 320 320 319 320 321 321 322 322 321 323 325 324 323 322 322 322 322 320 317 316 316 316 314 314 316 317
337 338 336 334 339 341 340 339 339 338 336 333 332 332 332 333 334 332 334 338 339 338 336 334 333 335 335 334 332 331 331 329 328 328 328 328 328 327 327 329 330 328 327 326 326 325 325 326 327 326 324 324 324 323 321 319 318 320 320 319 318 318 319 319 319 319 320 322 324 325 323 320 320 319 319 318 317 316 315 314 313 313 313 313 314
339 338 337 334 337 339 337 335 335 333 330 329 329 328 327 329 332 332 334 337 337 336 335 333 333 334 334 332 331 330 329 328 327 328 328 327 326 326 328 328 326 324 323 323 324 324 322 322 325 325 324 323 322 320 318 317 317 319 318 316 316 317 317 317 317 318 320 322 323 323 321 318 318 318 317 316 316 315 315 314 313 313 313 312 313
342 341 339 337 337 336 333 332 332 330 328 328 328 327 325 327 330 332 333 335 335 334 333 332 332 332 332 331 331 329 328 328 328 327 327 325 323 323 325 325 323 322 321 320 321 321 320 321 322 322 321 320 319 317 317 316 317 318 317 315 315 315 315 316 317 318 321 322 321 320 319 317 316 316 316 315 314 314 314 313 313 313 313 312 312
340 342 342 341 340 337 334 334 333 330 328 328 328 326 326 328 329 331 333 333 333 332 331 330 330 330 330 330 329 328 328 328 327 327 326 325 323 322 323 322 321 320 320 319 319 319 319 319 319 318 317 317 316 315 316 316 316 317 316 315 315 315 315 316 317 318 320 320 319 318 317 316 316 315 314 314 313 312 312 312 312 312 312 312 311
Wind_Speed
15 16 15 16 18 15 13 13 13 13 13 14 13 13 12 12 12 13 10 9 11 10 8 7 6 7 7 7 8 9 9 10 11 12 13 10 9 9 10 12 15 16 15 15 15 14 13 12 11 11 11 11 13 13 14 14 13 14 14 13 13 13 14 15 15 14 14 15 17 20 23 23 22 23 25 25 25 23 22 23 24 27 27 27 27
15 15 14 15 16 16 15 15 15 15 14 14 13 12 12 12 12 12 11 9 7 8 8 5 5 7 6 7 8 8 8 8 7 7 8 8 10 11 11 11 13 14 14 14 15 15 14 13 13 13 14 14 14 14 14 13 13 14 14 13 13 14 15 15 14 13 12 12 12 12 15 18 20 22 24 25 25 24 23 24 24 25 26 25 27
14 14 15 17 18 18 17 17 16 15 14 14 14 14 14 14 12 12 11 10 7 7 7 5 5 5 5 5 7 8 7 6 6 7 8 8 9 10 10 8 8 10 13 14 14 13 12 13 13 15 16 16 16 16 15 15 15 15 15 16 16 16 16 16 14 13 13 12 11 8 6 9 11 14 19 23 24 24 23 25 26 26 26 23 23
15 14 16 18 20 19 17 17 18 17 15 15 16 16 16 14 13 12 11 11 9 6 6 6 5 6 6 4 4 5 5 4 6 6 6 7 6 7 7 5 5 9 12 12 12 13 13 13 15 16 18 18 17 16 15 15 16 17 18 17 17 16 15 15 14 14 14 11 7 5 5 6 5 6 11 15 17 20 23 25 26 28 28 26 23
15 14 15 17 18 19 19 18 18 18 17 17 17 17 16 15 13 12 10 10 9 7 6 5 3 4 4 2 2 3 3 3 4 3 4 4 4 5 3 3 7 8 10 11 11 13 13 14 15 17 18 18 17 16 15 16 18 19 19 17 17 18 17 16 15 14 14 14 10 6 5 4 3 6 10 10 11 14 18 22 25 26 28 29 27
15 14 14 17 18 19 20 20 19 18 18 18 19 17 16 15 14 12 10 9 9 6 5 3 2 2 2 1 2 3 2 2 1 2 4 4 4 6 7 7 8 7 9 11 11 11 12 13 15 16 17 17 16 16 16 18 20 21 19 18 20 20 17 15 15 15 14 15 16 14 13 10 6 7 7 6 12 17 16 16 19 22 23 25 25
15 15 15 16 19 19 19 20 21 19 19 19 19 18 17 16 14 13 11 9 8 6 5 4 4 4 2 1 2 1 1 4 2 2 3 3 3 5 6 6 6 6 8 9 9 9 11 12 13 14 15 15 14 15 16 17 19 18 16 16 16 15 13 13 14 16 15 14 16 16 17 17 12 8 6 4 8 13 16 15 16 19 19 20 22
13 14 15 15 18 20 20 21 21 21 21 21 19 18 17 16 14 13 11 10 8 7 6 5 4 4 3 3 3 2 2 3 1 4 5 4 2 4 6 6 6 6 7 8 8 8 10 11 12 12 13 14 14 13 14 14 15 14 12 12 11 9 10 12 13 15 15 14 14 12 12 12 11 11 11 9 6 6 11 14 17 18 16 17 19
14 13 14 16 19 22 23 23 23 23 23 22 20 19 18 16 14 13 12 10 9 8 6 5 4 3 3 3 3 3 2 1 1 2 1 2 2 5 6 5 5 6 7 7 7 8 9 10 11 12 13 13 13 12 12 13 12 10 10 10 9 10 11 12 14 15 16 16 14 13 13 11 11 12 12 11 7 6 7 8 11 14 13 15 17
14 14 13 16 21 23 24 24 23 23 24 22 20 19 18 17 15 14 13 11 10 9 7 6 4 4 4 4 3 3 3 1 1 1 1 2 4 5 4 4 5 6 7 7 7 8 9 9 10 12 13 13 13 13 12 12 11 9 9 9 10 12 13 13 14 15 15 16 15 14 14 13 10 8 8 8 7 6 6 6 8 10 11 15 18
13 14 14 18 22 24 25 25 23 22 24 23 21 20 19 18 16 15 14 13 11 9 7 7 5 5 5 4 3 3 2 0 1 1 2 2 3 3 3 4 6 6 6 6 7 7 7 8 9 10 11 12 12 12 12 11 11 10 10 10 11 12 12 12 12 12 13 13 13 13 14 13 11 8 8 9 7 5 5 6 8 12 14 18 22
14 13 13 15 18 21 24 25 25 23 25 25 22 21 20 20 19 17 15 13 12 10 8 8 7 6 5 4 3 3 1 0 0 1 1 2 2 3 3 5 6 6 6 6 6 6 7 8 8 9 9 10 10 11 11 11 11 11 11 11 12 12 11 11 11 11 12 13 13 14 14 15 15 13 13 13 11 9 8 5 7 13 14 18 23
16 13 13 13 13 17 21 23 25 24 25 26 23 22 22 21 21 19 17 15 12 11 10 9 8 7 6 4 3 3 2 1 1 1 2 1 1 2 4 5 5 5 6 6 6 7 8 9 9 9 9 10 10 10 10 10 10 10 10 11 11 12 11 10 10 10 12 13 14 13 14 16 17 17 16 16 14 13 11 7 9 12 11 15 22
14 13 14 13 13 16 19 22 24 24 26 26 24 24 24 23 22 20 18 16 14 12 11 10 9 8 7 5 4 4 2 1 2 1 0 1 1 3 4 4 5 7 7 6 7 8 9 9 9 10 10 10 10 11 11 10 10 10 10 11 11 12 11 9 9 10 11 13 13 12 14 15 17 18 18 18 19 18 16 13 12 13 13 16 19
13 14 14 14 16 19 20 21 19 18 21 25 25 26 27 25 23 22 20 18 16 14 12 12 11 10 9 7 5 5 3 2 2 2 2 2 2 3 3 5 6 7 7 7 8 8 8 9 10 10 11 11 11 12 12 11 11 11 11 11 11 11 10 8 8 9 11 12 12 12 14 16 17 17 19 22 22 19 18 19 14 10 11 13 12
14 15 14 16 20 20 19 18 17 14 18 21 24 28 28 26 25 23 22 19 17 15 13 13 12 11 10 8 6 6 5 4 4 5 5 4 3 3 4 5 6 7 7 8 8 8 8 9 10 10 11 12 13 13 13 13 12 12 12 11 11 10 9 8 8 10 12 13 13 12 13 15 16 18 21 22 21 19 21 23 19 12 10 9 9
14 15 14 15 18 18 19 20 22 24 26 22 25 29 27 27 27 24 23 21 18 17 15 14 13 12 11 9 8 7 6 6 6 5 5 4 4 5 5 6 6 7 7 8 8 9 9 10 10 11 11 12 13 14 13 13 12 13 12 12 12 10 8 9 10 11 13 13 13 13 13 15 17 20 22 21 20 21 22 24 22 18 14 9 8
11 13 14 14 16 19 22 23 24 29 29 23 27 31 27 27 27 25 24 22 20 18 16 14 13 12 10 10 9 8 7 6 6 5 4 5 6 6 6 6 6 7 7 8 10 10 10 11 11 11 12 13 14 14 13 13 13 12 12 12 12 10 8 9 10 11 12 12 12 12 13 16 18 19 21 21 21 23 23 23 23 22 20 14 10
7 11 13 13 15 20 25 26 26 30 31 25 28 29 26 26 25 24 24 23 21 18 16 14 13 11 10 9 9 9 8 7 6 6 6 6 6 7 6 6 7 7 8 8 10 11 11 12 12 12 13 13 14 14 13 14 14 13 12 12 11 9 9 9 10 9 10 10 10 11 12 16 17 18 19 22 25 25 25 25 25 24 23 21 18
8 10 12 12 14 21 27 28 29 34 32 24 26 27 24 24 24 23 23 22 21 18 16 15 12 10 10 9 8 8 8 7 7 7 7 8 8 7 7 8 8 8 8 9 10 11 12 12 13 14 14 14 15 15 15 15 14 13 13 12 11 10 10 10 10 9 9 9 9 10 12 14 15 17 19 21 24 25 25 25 25 26 25 23 23
12 9 11 13 12 16 22 24 26 33 32 25 25 25 23 22 22 22 22 22 20 18 16 15 12 11 10 9 8 9 8 8 8 8 8 8 8 8 8 9 11 10 10 10 11 11 13 13 14 15 16 16 16 17 17 17 16 15 14 13 13 12 11 12 10 8 7 7 7 9 12 12 13 16 18 19 20 22 24 24 25 25 24 23 24
11 12 14 13 12 16 21 26 25 28 29 25 25 24 22 21 22 22 22 21 20 19 18 16 14 12 11 10 9 9 9 9 8 8 9 9 9 10 11 11 12 12 11 11 12 12 12 13 15 16 17 17 18 19 18 18 18 17 14 14 14 13 12 12 11 9 7 6 7 9 10 11 12 13 15 17 19 20 21 23 24 22 23 24 24
8 12 14 13 16 21 24 26 25 26 25 24 24 24 23 24 24 24 24 23 21 21 20 17 15 13 12 11 10 9 9 9 9 9 9 8 9 12 14 13 13 11 11 12 12 13 13 14 16 17 18 18 18 17 17 18 17 15 13 14 15 14 13 13 12 10 8 7 7 7 8 9 9 11 13 16 19 20 19 20 22 23 23 25 25
6 7 7 12 15 20 20 20 22 24 24 26 28 28 27 27 27 25 24 23 21 22 22 20 17 14 12 11 10 10 10 9 10 10 10 9 11 12 11 10 10 9 10 12 14 15 15 15 16 17 18 18 18 17 18 18 17 16 15 15 15 15 14 14 15 13 9 8 7 7 8 8 9 10 13 16 19 20 19 18 20 24 25 26 26
6 5 8 14 13 14 17 20 22 23 24 26 30 31 27 26 25 23 22 22 19 20 21 20 18 15 14 13 12 11 11 10 10 10 10 10 10 10 8 8 10 11 12 13 14 15 15 17 18 18 18 18 19 20 20 18 19 21 20 18 17 16 16 16 17 15 12 10 8 8 9 9 10 11 14 17 19 20 19 19 21 24 25 26 27
5 6 10 16 15 14 16 20 22 23 24 25 28 28 24 23 23 20 20 21 21 20 18 18 19 16 16 16 13 12 12 12 12 11 10 9 8 10 11 11 11 11 11 11 13 15 16 17 18 18 19 18 18 20 21 20 21 20 19 19 19 18 17 18 19 18 15 13 11 11 11 11 11 12 14 16 19 19 19 20 21 22 24 27 28
2 4 5 10 14 16 16 17 21 24 25 24 25 25 23 23 23 20 18 21 24 22 17 17 19 18 18 18 15 14 13 12 12 12 11 10 9 10 11 11 11 10 10 12 14 16 16 15 16 18 18 17 18 21 22 20 17 15 15 17 18 19 20 21 22 21 17 16 16 15 14 13 11 11 13 15 16 18 18 19 20 21 24 26 27
4 4 2 5 9 13 14 14 18 23 24 24 24 25 25 25 24 21 20 23 24 21 19 21 21 17 18 20 17 15 15 14 13 11 11 10 10 11 11 12 13 11 11 13 14 14 14 15 17 18 17 18 21 20 17 14 12 12 14 16 17 18 21 24 24 21 18 18 19 19 17 15 13 12 13 13 14 16 17 19 20 22 25 26 26
10 8 7 8 10 11 12 14 19 23 24 24 24 26 27 28 27 24 22 21 20 18 19 22 22 17 15 18 16 15 15 15 14 13 12 11 11 12 12 13 13 12 12 14 14 13 14 16 17 17 18 19 17 11 9 11 12 12 13 16 17 16 20 23 22 20 20 22 23 22 20 19 17 16 15 14 15 15 16 18 20 23 25 26 26
10 10 9 10 11 12 12 14 18 24 25 25 26 29 30 30 29 28 26 22 19 19 18 19 20 17 14 15 15 15 15 15 14 13 12 12 12 12 13 14 14 13 12 13 13 13 13 14 15 16 17 14 10 8 10 11 10 11 11 12 14 15 17 19 21 21 23 24 23 23 24 24 22 19 16 16 17 18 17 17 19 23 27 28 27
7 9 7 8 12 15 15 14 18 25 27 26 27 28 29 29 28 27 27 23 21 21 20 18 19 18 16 16 17 17 17 16 15 13 12 12 13 13 13 14 14 13 12 13 14 14 13 12 13 15 15 11 10 12 11 9 9 10 10 9 11 14 16 18 20 22 23 25 26 26 25 22 18 18 17 17 18 19 17 16 19 26 30 30 29
3 8 11 12 14 15 14 14 18 24 26 25 26 26 25 27 28 27 26 23 23 23 22 20 19 18 18 19 19 19 19 17 15 14 13 13 14 14 14 15 15 13 12 12 14 14 13 12 13 15 14 12 14 15 12 10 10 10 9 10 13 16 17 18 19 21 24 27 28 24 19 17 18 20 22 22 22 19 16 17 23 29 31 30 31
6 5 8 12 13 13 14 17 21 25 26 27 27 27 26 27 27 26 26 25 25 24 23 21 19 18 19 21 20 20 20 18 16 14 14 14 15 15 14 15 14 13 12 13 15 14 13 13 14 15 14 15 16 15 12 11 11 10 10 12 15 18 19 20 21 22 24 26 24 20 18 21 24 25 24 24 24 20 18 20 27 31 30 30 33
8 8 6 8 10 12 18 24 26 27 30 31 30 28 27 29 29 27 26 25 26 26 24 22 20 20 20 21 22 21 19 17 16 15 14 14 15 15 15 15 14 13 14 15 16 14 13 14 14 15 16 16 15 13 12 12 12 11 12 13 15 18 20 21 22 23 24 24 24 22 22 22 22 22 22 23 22 21 22 24 28 30 31 32 33
7 8 7 5 8 10 17 25 28 29 31 31 30 29 29 30 28 23 21 26 27 26 25 23 21 21 21 22 22 21 18 17 16 15 14 15 15 14 14 15 14 15 16 16 15 13 14 15 15 14 15 14 12 11 12 13 13 13 14 15 16 17 19 20 21 21 22 24 26 26 23 19 18 19 20 19 18 21 23 24 26 30 32 34 34
7 7 7 6 10 15 18 23 28 31 29 27 28 30 30 27 19 13 19 26 26 25 24 22 21 21 22 22 21 20 19 18 16 16 16 15 14 14 14 15 15 16 18 19 17 15 16 17 15 14 13 11 9 11 13 14 13 14 17 17 17 18 19 20 19 19 21 23 25 24 19 15 15 17 17 15 15 19 21 21 25 31 33 33 34
3 3 6 8 11 19 23 24 24 26 26 27 29 30 29 23 17 18 21 24 25 24 23 22 22 22 21 21 21 20 20 19 18 17 16 16 16 18 17 15 15 17 21 22 18 17 17 15 13 13 12 11 10 13 15 15 14 15 16 15 15 17 18 18 18 18 19 21 23 22 18 15 14 13 13 14 15 18 20 20 25 30 31 32 34
0 2 7 10 12 18 20 20 23 25 28 32 31 28 25 22 22 23 22 21 21 22 23 23 23 22 21 22 22 21 20 20 20 18 16 16 17 18 17 17 17 20 22 20 17 17 17 12 10 13 13 13 14 14 15 15 16 17 16 14 14 14 15 16 17 16 17 21 22 20 15 14 13 11 11 15 16 16 17 19 23 27 28 30 34
3 3 8 12 14 13 13 18 23 26 30 32 29 25 23 22 22 22 20 18 20 22 23 24 23 22 22 21 21 22 21 20 19 17 16 17 16 15 17 20 21 21 20 19 18 18 16 12 11 12 14 14 13 11 12 15 18 18 16 13 13 13 14 16 16 15 17 20 20 17 12 10 11 11 13 16 15 13 14 18 22 25 25 28 36
2 2 8 15 13 11 18 23 26 28 27 23 21 22 22 21 20 19 18 20 23 24 23 24 23 22 22 21 20 21 21 20 19 16 15 15 15 15 16 17 17 17 18 19 20 17 14 13 13 12 12 13 12 11 13 17 19 18 14 10 10 11 13 15 15 15 17 17 15 13 12 10 10 10 13 14 11 10 13 17 21 23 25 30 39
6 6 9 14 13 20 27 27 29 32 29 23 22 22 20 19 19 18 18 19 22 25 23 21 21 21 21 21 19 18 19 20 17 13 12 13 13 11 8 5 7 12 15 18 19 15 11 11 13 11 9 12 14 14 17 20 18 14 9 6 7 10 12 14 15 15 15 13 12 12 12 12 13 14 14 12 8 8 13 16 19 23 26 32 39
5 7 5 9 7 6 20 27 30 29 24 24 25 20 17 20 21 21 21 18 18 21 20 19 20 20 19 17 14 13 15 14 12 12 12 11 11 9 8 11 13 15 17 20 20 15 9 9 11 10 12 16 15 13 18 21 16 9 6 7 9 9 11 13 14 14 14 13 12 12 12 14 16 16 14 9 6 9 14 16 18 22 25 32 36
9 9 9 6 4 1 12 22 28 27 22 24 24 16 14 19 18 18 20 17 14 16 17 17 18 18 17 15 13 13 13 11 11 12 9 8 10 10 11 13 16 17 19 18 14 9 7 10 11 9 9 11 9 9 13 16 12 8 8 10 10 10 11 12 12 13 14 14 13 12 14 16 16 13 12 9 8 11 15 16 18 20 24 31 34
9 9 13 17 16 17 19 21 24 24 19 18 20 16 14 8 3 1 1 0 4 8 10 9 10 12 14 13 12 10 10 10 10 9 8 8 10 10 11 13 16 18 17 13 8 6 7 10 13 11 6 3 3 6 7 7 7 8 10 11 11 12 12 12 11 12 13 13 13 13 14 15 13 10 9 8 9 13 17 18 18 18 22 29 32
6 9 18 23 21 21 20 15 15 19 16 13 16 13 7 4 8 6 7 7 8 11 11 10 12 12 8 8 9 7 7 8 8 7 7 7 9 12 14 15 16 15 11 6 5 6 6 7 8 7 4 1 2 4 2 2 5 10 12 12 11 11 11 12 13 14 13 12 12 14 15 14 12 9 8 8 12 17 18 16 16 17 20 25 28
9 8 3 11 12 14 18 16 17 22 21 14 13 10 4 3 2 3 5 7 12 13 13 13 13 11 6 4 5 6 6 6 6 6 8 10 14 16 15 14 13 11 6 3 4 6 7 5 3 2 1 2 4 3 0 1 7 11 13 13 12 11 11 12 12 13 12 11 12 14 14 13 11 9 7 8 13 18 17 15 17 19 20 22 25
19 21 19 17 15 14 17 17 16 21 22 17 12 8 4 3 4 5 9 13 15 13 11 11 11 11 11 8 6 6 5 6 7 9 12 13 12 11 10 9 6 5 4 5 6 7 7 4 1 2 1 2 3 2 1 5 10 12 12 13 13 13 13 12 11 13 13 12 12 11 11 10 10 10 9 9 12 17 19 19 21 23 23 23 24
20 21 21 24 24 20 14 13 15 19 21 17 12 6 3 5 7 8 10 14 14 9 7 11 12 10 6 2 4 4 4 6 7 8 9 7 4 5 7 4 2 4 6 6 7 7 7 6 2 3 3 3 2 2 4 9 12 11 10 13 14 15 16 16 14 14 14 12 11 9 8 11 11 10 11 11 12 15 18 20 22 23 24 26 26
20 21 20 24 26 20 13 12 14 14 13 13 10 5 3 3 5 6 8 10 8 6 7 10 9 5 4 5 5 5 8 9 6 2 0 1 2 2 3 1 2 4 6 6 6 5 5 7 3 1 0 1 1 2 6 10 11 9 8 11 14 15 16 16 15 14 13 12 10 8 9 11 11 10 11 12 12 13 15 19 22 23 24 26 27
17 20 22 23 22 18 14 13 13 11 10 9 8 8 7 7 6 5 5 5 5 5 6 7 6 5 5 7 8 6 7 6 3 2 4 4 3 3 2 1 2 4 6 7 6 4 3 3 3 5 2 2 2 3 6 8 9 7 6 9 12 14 14 13 13 13 12 10 9 9 9 10 10 9 10 11 12 13 14 17 20 21 22 25 26
14 16 18 20 22 22 18 15 17 18 16 13 12 11 8 8 8 7 5 6 6 6 7 7 6 5 4 6 7 6 4 4 5 5 7 8 7 6 4 3 3 4 5 6 6 6 4 3 6 7 4 4 4 4 6 7 8 6 5 7 10 13 13 12 11 10 9 9 9 9 8 9 9 9 10 10 11 12 14 16 18 19 20 23 24
Wind_Direction
159 166 170 165 165 166 168 173 178 178 175 172 176 181 183 190 189 181 185 183 176 174 160 160 189 198 193 197 211 226 232 232 242 243 236 234 237 248 264 277 284 283 281 281 275 272 274 275 271 267 267 266 267 271 278 280 278 279 281 283 282 280 281 281 278 277 276 277 279 278 278 280 282 277 270 265 260 255 245 243 245 238 232 230 232
152 153 159 166 164 165 170 173 176 173 169 172 176 178 179 184 186 179 176 176 177 173 153 154 216 220 214 218 218 229 231 218 217 210 219 240 243 248 265 280 283 281 279 282 278 274 275 273 271 272 270 265 265 269 273 276 277 279 278 278 278 274 274 276 275 273 269 272 279 282 283 282 278 271 264 258 255 254 244 239 241 237 233 233 230
148 152 158 167 168 169 175 173 171 171 168 171 176 179 182 184 186 185 179 178 182 183 181 195 229 224 218 220 218 222 207 185 194 198 212 230 234 244 254 263 278 283 285 292 294 291 285 276 274 276 274 268 264 265 269 274 278 278 274 272 275 274 271 274 274 266 261 272 282 281 285 290 285 272 264 257 251 251 248 243 241 239 237 238 236
153 166 167 172 173 170 176 173 165 169 172 169 174 179 182 184 183 181 180 186 187 186 193 198 212 210 202 204 212 210 195 197 220 225 234 229 228 246 241 237 277 292 294 300 302 299 294 288 285 283 281 278 273 273 274 276 280 279 276 273 271 271 270 275 276 268 264 269 279 284 294 297 284 283 286 275 256 246 248 247 241 241 241 243 246
158 175 174 172 174 169 171 172 164 169 173 170 174 178 180 182 179 173 175 185 183 175 177 178 192 194 187 201 190 175 183 222 240 273 301 293 282 288 311 325 309 303 298 297 293 292 293 292 291 289 289 288 285 286 281 279 281 277 274 272 268 267 267 269 273 275 272 266 263 268 284 288 276 309 318 308 285 262 252 250 247 248 246 246 248
162 178 178 168 168 170 168 168 168 170 172 173 175 176 176 178 175 169 169 175 172 160 154 145 137 131 99 56 106 127 162 156 160 303 329 336 322 319 331 323 306 301 296 293 290 288 288 288 288 291 294 293 292 296 289 281 280 277 276 273 265 262 261 261 270 280 281 276 273 264 257 258 270 305 312 303 299 289 274 261 250 250 251 251 253
171 178 177 165 165 170 168 168 171 170 171 175 176 174 173 171 170 169 166 164 159 149 143 136 120 107 92 93 101 104 134 115 118 256 266 285 310 316 311 300 294 296 291 291 293 291 292 292 293 298 303 304 304 306 297 285 282 283 283 275 265 261 258 258 273 285 287 286 283 272 263 264 270 283 280 279 299 290 281 277 264 260 261 258 257
176 177 172 167 167 170 168 170 174 171 172 175 173 171 170 169 169 169 164 156 152 147 140 137 122 107 102 101 112 126 86 79 159 236 222 213 257 285 276 275 281 285 282 285 291 294 298 302 305 306 309 310 311 314 308 297 293 293 290 283 274 269 262 260 272 283 285 287 288 287 284 279 275 272 268 271 286 288 285 283 278 274 262 250 257
175 180 172 169 169 167 167 172 176 174 171 170 168 167 167 169 169 163 157 150 151 151 140 136 132 126 122 108 122 141 115 57 298 288 213 177 258 264 256 262 272 280 286 288 294 302 305 308 313 314 313 312 316 317 314 312 313 310 304 299 288 282 280 272 270 275 279 288 296 300 302 295 282 276 272 270 270 278 290 290 289 288 270 257 269
175 182 175 170 168 167 169 173 178 174 167 166 167 167 167 168 166 158 153 152 153 154 147 142 137 142 146 133 141 149 139 158 253 293 238 209 245 256 254 270 280 282 287 291 297 301 303 310 316 318 319 319 321 320 318 321 326 326 319 315 306 297 294 282 274 282 288 295 305 305 300 297 290 284 279 274 271 272 281 290 299 300 288 281 282
175 182 178 171 169 171 171 172 179 174 164 167 169 168 169 167 162 156 154 157 156 155 153 152 153 154 150 146 153 136 110 110 249 252 228 216 244 263 277 285 283 279 281 286 290 294 304 315 316 317 321 322 323 324 326 326 323 323 320 316 310 302 299 289 284 295 302 303 308 306 297 294 287 279 282 284 277 268 280 292 295 295 292 289 287
177 180 177 172 170 177 176 172 179 174 164 170 173 169 169 165 159 157 159 160 159 159 161 161 164 161 152 157 156 126 99 273 277 288 260 250 277 297 297 289 285 282 286 290 296 311 321 322 319 317 320 321 320 319 320 321 318 318 317 314 309 307 309 305 298 308 315 313 313 309 301 300 294 287 290 291 282 271 272 276 282 289 291 287 287
183 181 177 176 173 180 180 173 176 173 166 173 177 170 166 161 159 161 162 163 162 164 167 167 170 168 157 159 157 138 150 192 191 265 233 199 281 291 290 298 304 297 299 310 322 326 324 322 319 318 318 317 316 314 312 312 311 311 313 312 312 313 315 314 312 320 325 323 322 314 305 306 307 307 308 308 306 299 288 279 278 280 280 284 288
181 183 179 176 178 181 180 174 174 172 170 175 177 168 161 160 164 165 164 165 166 168 172 175 174 170 164 163 164 158 163 184 181 218 264 134 231 270 285 299 304 300 306 322 323 317 316 317 315 314 314 314 312 311 309 309 310 311 311 310 309 310 312 317 323 326 328 327 326 321 315 315 317 320 321 321 323 317 303 296 295 288 278 280 284
176 183 180 174 180 180 178 174 168 167 174 178 174 164 160 163 166 166 166 166 168 172 178 179 177 174 172 171 169 167 166 181 182 194 239 226 222 256 280 283 288 296 304 309 306 305 310 312 313 312 311 310 310 310 309 309 310 309 308 307 307 309 314 323 331 331 327 323 322 322 324 325 327 328 327 324 320 313 302 298 296 293 286 282 278
181 181 179 177 178 174 169 162 151 163 194 193 172 161 160 165 167 168 168 168 170 176 181 182 180 176 176 175 173 175 174 187 206 209 215 215 218 254 273 277 281 285 290 293 293 299 305 307 308 307 305 305 305 305 305 305 307 308 308 306 305 309 317 325 331 328 321 319 323 328 333 335 334 331 327 323 316 309 307 303 294 280 280 289 287
190 182 177 175 173 166 161 157 158 179 206 203 171 163 164 165 167 168 168 169 173 179 183 185 181 176 179 179 175 182 186 193 210 211 205 212 235 252 257 264 271 276 283 288 291 296 300 301 302 300 301 301 298 299 300 300 303 305 305 303 301 301 307 313 315 316 317 323 327 329 335 338 334 327 323 322 319 316 315 311 302 286 272 273 288
188 175 172 171 167 162 163 167 173 187 205 200 170 166 168 167 168 168 168 171 175 181 185 185 182 179 181 182 179 185 192 196 207 210 208 224 240 245 251 264 277 286 289 290 292 295 296 297 297 296 299 297 293 292 291 291 292 295 298 298 294 291 293 301 309 314 319 323 324 327 331 329 326 325 324 326 328 326 322 318 315 304 286 269 270
182 171 178 178 168 169 173 177 181 189 202 196 169 164 167 166 169 170 170 173 175 181 185 182 182 182 179 183 185 184 190 198 202 202 208 226 241 248 257 267 274 280 283 285 290 293 294 295 294 293 294 295 294 291 286 284 284 285 290 290 287 286 289 296 307 313 315 317 322 330 329 325 324 326 329 333 332 329 327 323 321 318 307 289 277
193 181 178 174 173 179 182 184 185 187 193 184 165 164 167 167 171 172 173 175 177 181 183 179 182 184 178 179 182 186 193 199 200 203 213 228 240 250 262 270 272 271 272 276 283 286 288 289 290 290 289 290 293 293 290 289 287 285 287 286 282 284 291 297 300 303 310 319 325 328 324 323 329 332 334 336 332 327 326 325 324 321 317 309 295
193 176 168 171 167 166 178 192 191 182 180 175 167 169 170 169 173 176 176 177 179 181 179 179 184 185 181 180 184 192 197 201 205 208 216 231 242 253 265 266 262 263 266 271 274 276 280 283 284 285 286 289 292 295 296 294 290 284 281 284 284 283 290 295 294 293 306 318 318 321 324 326 332 336 335 333 329 326 323 321 324 322 316 316 311
197 177 170 165 146 153 183 203 194 175 175 180 175 172 175 177 178 180 181 181 182 181 178 179 184 183 183 186 190 196 199 204 210 212 222 234 240 250 260 256 252 259 264 265 268 273 278 281 283 284 285 287 290 293 296 294 292 288 282 280 281 282 287 290 288 291 299 307 308 314 322 326 331 334 331 328 325 322 320 317 321 324 319 318 319
213 201 178 154 149 165 185 198 187 170 172 178 175 177 185 186 183 182 183 184 184 181 178 179 183 186 188 188 191 199 204 208 211 216 228 239 248 256 257 247 245 256 265 270 273 275 275 276 281 284 284 286 287 286 289 290 289 293 291 284 282 283 284 284 285 290 292 293 300 307 312 316 322 324 323 326 325 319 318 318 319 322 322 319 320
213 237 172 138 148 158 165 179 179 171 174 179 181 188 192 186 185 186 183 184 186 179 176 179 182 186 191 188 190 200 207 212 217 221 226 235 250 258 255 245 249 263 273 278 276 269 270 275 278 280 281 286 288 286 289 289 282 284 289 287 286 285 284 284 284 284 283 285 287 290 297 300 302 309 317 325 328 323 320 318 318 321 324 323 323
202 231 137 135 153 160 164 178 180 177 185 187 185 188 187 178 180 186 183 184 181 165 163 175 182 186 192 188 189 200 208 215 220 227 233 239 254 272 279 275 274 274 270 272 275 274 279 282 280 281 283 286 288 289 292 290 282 281 285 287 289 286 280 281 281 280 280 283 280 277 285 290 292 299 311 322 327 325 323 325 326 326 328 328 327
205 209 157 153 165 173 177 181 183 188 192 189 182 179 173 167 173 182 185 184 175 161 160 176 186 192 193 187 188 199 208 217 219 225 237 245 260 273 273 273 277 278 273 273 280 280 278 280 282 286 286 286 290 292 290 286 280 279 282 285 288 287 281 278 279 281 279 278 276 271 274 280 286 292 301 313 322 323 324 332 335 332 332 333 330
234 235 183 154 158 170 178 178 182 189 187 178 172 167 162 162 169 181 185 175 170 171 179 189 194 198 193 184 187 198 207 219 222 224 231 236 248 259 263 274 283 286 282 279 279 278 278 285 288 289 290 291 294 295 290 283 277 278 281 280 281 285 284 280 281 281 275 272 275 270 267 272 274 282 293 304 315 318 320 329 334 333 332 332 329
217 239 151 127 155 174 181 176 174 176 172 167 163 161 161 161 169 183 182 167 165 176 189 194 198 201 191 183 186 197 205 215 220 224 230 234 243 251 255 266 271 271 274 277 279 281 288 294 294 292 291 289 289 290 288 283 283 291 293 289 287 284 275 273 279 281 274 275 277 269 263 264 261 269 288 300 307 310 310 314 323 328 329 327 325
198 200 171 167 176 178 181 182 174 168 166 165 161 161 163 165 174 188 183 170 173 184 192 195 194 194 190 182 185 197 205 211 217 222 228 233 241 247 249 256 259 259 266 273 277 282 288 291 289 287 286 287 295 308 311 305 308 318 312 296 287 277 268 272 282 283 278 278 276 269 263 259 258 267 287 297 299 304 302 299 308 320 323 321 319
191 181 173 169 168 179 191 188 177 170 167 167 165 167 170 170 178 185 180 177 185 190 193 191 183 188 195 185 187 202 207 210 215 219 225 232 239 243 247 254 256 256 260 269 273 276 281 285 286 288 290 296 315 337 332 321 319 326 321 298 285 283 284 289 293 289 284 280 275 270 264 260 259 264 278 288 291 297 296 290 300 315 317 314 312
188 162 163 162 168 187 196 187 177 173 170 169 170 171 173 173 177 179 175 180 190 191 192 187 181 190 196 188 192 203 208 211 214 219 227 234 238 244 250 255 257 257 261 269 271 269 271 279 287 292 292 293 298 303 309 315 308 302 302 300 299 299 296 296 298 297 293 288 283 277 270 268 268 267 275 286 292 297 295 288 301 315 315 312 308
213 175 184 185 182 184 184 176 172 170 169 168 168 168 170 174 180 179 177 183 189 188 188 187 187 193 189 187 196 203 206 210 211 218 229 235 242 248 254 259 261 259 261 265 267 265 266 271 277 277 276 284 298 298 293 296 301 294 288 297 306 305 300 298 300 303 302 298 294 289 287 294 291 284 286 291 293 298 297 294 309 319 319 316 315
293 245 204 192 182 171 170 174 172 171 172 172 172 176 183 187 189 184 179 183 185 184 186 187 190 193 187 189 200 204 205 208 210 217 229 238 246 250 253 261 264 264 264 262 261 260 261 268 271 269 271 285 298 299 290 291 298 296 294 303 307 306 303 299 297 303 307 304 299 296 298 298 289 283 287 290 290 296 300 304 318 324 321 320 322
286 279 242 202 183 173 174 177 176 176 179 181 181 184 191 198 195 180 176 187 187 182 185 188 189 190 188 193 202 205 207 210 213 217 227 239 250 254 258 264 265 265 263 260 257 255 261 271 271 269 276 286 292 293 291 295 301 305 306 307 305 302 298 294 295 302 305 304 307 305 297 294 289 284 288 290 289 294 300 308 320 324 320 320 323
268 273 267 218 181 176 175 176 178 180 182 185 188 188 190 190 181 171 185 199 191 177 177 182 183 187 192 197 201 203 208 215 218 220 226 238 246 250 258 265 267 267 267 265 261 258 264 270 268 269 279 288 289 285 286 292 303 314 315 309 301 295 291 290 295 302 303 307 318 315 300 293 297 294 295 294 287 293 304 311 318 321 319 320 320
233 241 256 229 194 187 184 183 183 183 183 182 182 182 181 174 170 191 207 196 179 166 168 177 184 189 194 197 200 203 209 216 221 222 226 236 241 244 255 265 268 270 271 269 264 259 263 267 269 271 271 272 278 281 282 286 297 313 317 310 298 289 286 288 293 301 307 313 319 314 297 291 305 305 301 297 291 301 314 316 314 317 319 319 320
241 235 261 256 215 193 191 187 178 175 177 174 166 164 167 171 191 209 192 168 159 162 170 182 190 192 195 199 202 205 210 217 220 222 228 238 240 239 242 247 255 261 264 262 259 261 266 268 276 282 266 253 268 279 276 275 288 311 316 308 299 290 283 287 295 301 310 317 318 312 294 289 308 314 306 306 310 316 320 318 315 316 317 318 323
281 304 280 263 225 202 196 183 168 162 163 162 158 157 166 186 202 193 170 157 163 171 179 189 194 196 200 202 203 208 213 217 217 220 233 242 240 236 236 237 241 249 255 258 260 270 278 273 277 289 282 272 278 279 271 270 285 306 312 304 301 292 278 285 299 302 305 312 320 324 311 301 316 323 313 316 321 321 322 324 322 318 315 320 328
68 341 287 262 236 209 176 158 156 154 152 156 158 159 175 197 197 177 165 169 176 180 189 197 199 202 206 206 209 212 213 215 218 224 240 248 245 244 245 243 241 243 250 258 262 271 280 273 265 279 288 290 291 285 281 284 290 301 306 300 297 290 281 289 296 293 295 303 316 331 332 321 323 317 308 313 318 320 330 336 330 321 318 326 334
16 287 264 256 237 175 139 140 149 149 146 152 160 167 184 196 183 170 177 185 185 190 197 201 203 207 209 211 215 216 214 217 221 229 245 256 259 258 251 241 238 241 248 258 263 264 267 263 260 267 283 302 314 306 295 295 296 296 296 295 299 298 294 295 294 290 294 298 309 328 335 332 330 318 309 311 312 323 341 345 338 328 324 330 335
224 190 215 239 215 164 150 148 151 149 146 153 170 182 192 188 173 179 194 193 189 193 197 201 206 212 215 214 214 218 220 219 221 232 253 266 269 270 267 262 263 260 262 272 278 279 277 278 277 280 309 343 346 322 304 302 301 298 297 309 322 312 296 290 289 290 290 290 304 327 335 333 330 325 322 317 309 329 346 346 338 331 332 338 338
139 100 54 347 337 149 145 143 145 147 152 171 183 185 183 180 184 194 199 197 194 194 200 210 215 217 215 208 210 226 229 225 233 241 245 258 269 276 301 313 302 287 281 285 292 298 312 320 314 319 345 355 351 328 310 307 306 306 312 323 328 317 299 292 292 291 289 291 305 320 327 328 326 327 329 322 301 323 337 335 332 337 347 351 346
118 102 89 67 351 192 139 143 154 162 171 180 181 180 180 183 193 201 199 201 205 201 207 218 220 221 220 214 219 230 224 221 236 240 240 265 281 289 303 301 288 278 276 285 300 308 308 309 307 307 325 332 324 303 298 301 306 319 328 328 324 315 308 305 300 293 291 295 304 313 322 328 330 331 333 323 307 323 332 327 327 341 358 1 353
136 148 152 161 182 184 172 169 169 172 175 163 161 187 206 185 145 320 172 84 273 250 240 237 243 249 238 217 208 206 202 209 229 244 261 272 275 284 290 283 276 273 273 282 295 291 285 294 289 277 272 295 286 274 284 301 318 324 324 321 312 307 312 314 304 294 293 298 309 320 327 331 329 325 326 326 327 334 334 329 331 345 4 6 357
196 190 184 182 183 177 172 163 145 151 165 150 143 170 194 72 44 11 10 8 321 295 291 286 282 277 246 186 175 188 212 230 233 235 248 262 273 276 272 271 278 283 284 289 296 290 288 282 264 250 238 237 283 288 298 341 325 320 321 320 316 322 332 329 315 306 301 305 319 329 333 333 330 323 320 329 339 339 335 334 343 355 5 7 359
346 344 215 192 184 153 131 109 108 132 149 147 126 122 102 40 4 287 287 282 275 274 275 274 274 272 258 209 200 217 225 220 202 200 224 250 262 265 269 279 287 286 286 304 318 319 314 294 258 242 294 305 313 327 36 303 319 325 328 333 341 347 344 335 330 326 321 322 331 336 338 342 351 359 356 345 345 346 348 357 5 7 8 7 0
35 28 39 46 35 49 82 93 102 117 124 124 113 101 101 159 197 229 238 239 241 242 247 260 263 260 262 259 232 213 203 195 205 227 244 250 250 260 287 305 303 295 311 325 326 334 334 318 240 152 219 293 329 350 330 329 335 335 337 345 354 355 350 350 352 344 337 334 335 338 350 6 19 23 17 0 349 353 3 13 17 16 15 10 4
68 62 67 74 68 59 62 74 84 96 103 104 106 114 154 177 199 222 212 205 211 219 246 267 262 248 242 201 164 181 214 232 244 256 267 271 272 296 315 339 13 346 344 344 338 341 338 318 267 185 220 265 276 305 328 340 340 337 345 355 358 358 359 1 358 344 338 340 338 339 6 21 18 15 14 5 354 356 4 11 15 16 15 12 10
94 94 101 106 104 99 92 77 73 78 79 73 75 80 90 132 178 192 172 169 188 217 250 259 249 219 169 147 160 212 240 242 244 237 234 272 265 276 298 3 16 341 348 357 355 359 348 327 322 133 211 259 153 324 330 338 336 337 358 9 7 5 1 358 355 346 337 341 346 354 17 20 9 6 11 4 354 354 358 2 8 12 11 11 11
97 104 111 117 118 116 114 109 107 111 107 96 96 95 87 95 115 128 138 158 183 206 227 233 224 219 207 180 182 221 244 242 238 144 140 148 138 132 136 98 41 7 5 5 6 17 7 354 92 114 94 61 78 356 338 343 341 345 16 25 19 14 4 352 350 348 343 351 4 11 18 16 6 5 10 4 356 356 358 357 360 3 5 6 6
100 106 114 123 128 128 128 129 126 124 127 126 118 111 114 121 119 120 143 169 178 193 220 230 225 220 189 169 194 241 273 284 274 233 182 164 143 121 108 88 61 33 17 22 36 47 44 69 114 118 89 50 44 19 11 11 2 6 38 37 29 28 18 0 350 350 359 12 17 16 17 14 7 7 11 6 0 0 360 356 354 356 359 1 1